Showing default

NUSAT-3, 42760

Orbit data source: Space-Track

NUSAT-3, 42760 is a payload satellite owned by URUGUS S.A. (AR) in LEO that was launched on Thu, 15 Jun 2017 UTC via a CHANG ZHENG 4B launch vehicle from the Jiuquan Satellite Launch Center, China (JSC). Payloads include a variety of satellites, spacecraft, and rockets equipped with specific instruments for various scientific and technological missions. These include communications satellites like Starlink; space stations such as the ISS; scientific satellites like the Hubble; Earth observation satellites from companies like Planet Labs, Umbra, and HawkEye 360; GPS; miniature CubeSats for education and research; and military/defense satellites.

Loading next visibility...
NUSAT-3 details
Identifier
42760, 2017-034C
Orbit
LEO
Last TLE update7 hours ago
Origin
Flag of ARURUGUS S.A. (AR / ARGN)
ManufacturerURUGUS S.A.
MissionOperational Commercial Imaging
Bus & MotorALEPH, Unknown motor
Mass37 kg wet, 37 kg dry
Launch date (UTC)
2017-06-15 (8 years ago)
Launch vehicle
CHANG ZHENG 4B
Launch site
Jiuquan Satellite Launch Center, China (JSC)
Object type
Payload
Rocket body
Debris
Shape & HBRBox, 0.75 m
Radar Cross Section0.380 m², Medium (>0.1 m² and < 1m²)

Expand to show TLE details & history

TLE from 7 hours ago
0 NUSAT-3
1 42760U 17034C   24361.55466940  .00061576  00000-0  11084-2 0  9990
2 42760  43.0021 187.2507 0020153 250.4942 109.3741 15.48748450417225
Epoch: 2024-12-26T13:18Z
Definitive object data (Epoch: 2024-12-26T13:18:43.436Z)
Latitude0.00002°
Longitude-107.96265°
Altitude424.729 km
Speed7.656 km/s
True Right ascension12h 29m 00s
True Declination0° 00' 00"
Sunlit
Object was in daylight at TLE epoch
Visualization TLE readout
Latitude41.10161°
Longitude-41.06762°
Altitude436.662 km
Speed7.648 km/s
Apparent Right ascension12h 22m 31s
Apparent Declination7° 31' 08"
Sunlit
Object is in daylight
Visualization observer readout
Local Sidereal Time19:12:01
Azimuth283.735° WNW
Elevation-4.53°
Doppler factor1
Orbital elements
Apogee altitude436.054 km
Perigee altitude408.644 km
Semi-major axis6,800.486 km
Eccentricity0.0020153
Inclination43.0021°
RAAN187.2507°
Arg. of periapsis250.4942°
True anomaly109.59178°
Mean anomaly109.3741°
Eccentric anomaly109.48296°
Mean motion3.8702 °/min
BSTAR0.0011084
Orbital period93.02 mins
Loading maneuver chart data...
Loading historical data...
Loading historical data...
Loading historical data...
Loading historical data...
Loading historical data...
Loading historical data...
Loading historical data...

NUSAT-3 Visibility forecast

Observer location: undefined°, undefined

Span
Click to sort rows by Start time (UTC) header in descending order
Start Az.
Max El. time (UTC)
Max El. Az.
Max El.
End time (UTC)
End Az.
6 mins2024-12-26 19:53:17.711Z291.108° WNW2024-12-26 19:56:17.711Z13.889° NNE40.245°2024-12-26 19:59:17.711Z89.37° E
4 mins2024-12-26 21:32:17.711Z263.889° W2024-12-26 21:33:17.711Z233.594° WSW33.446°2024-12-26 21:36:17.711Z137.665° SSE
4 mins2024-12-27 15:51:17.711Z204.902° SW2024-12-27 15:53:17.711Z129.601° SE31.023°2024-12-27 15:55:17.711Z87.017° E
5 mins2024-12-27 17:28:17.711Z272.85° WNW2024-12-27 17:30:17.711Z347.844° N41.313°2024-12-27 17:33:17.711Z68.984° E
5 mins2024-12-27 19:06:17.711Z298.807° NW2024-12-27 19:08:17.711Z20.679° NNE37.767°2024-12-27 19:11:17.711Z83.491° E
|